Temp
6 6 6 6 6 6 6 6 7 7 7 7 7 8 8 9 9 9 7 7 8 7 4 4 5 5 4 6 7 5 6 5 5 6 6 5 5 5 4 5 4 4 4 3 4 4 4 4 5 5 2 2 1 -0
6 6 5 5 5 5 6 6 6 6 6 6 7 7 7 8 8 8 7 6 7 6 4 3 4 4 5 5 6 5 6 6 6 6 5 5 5 4 3 4 5 5 5 6 5 5 4 4 2 1 1 0 -1 -1
6 6 6 5 5 5 5 6 6 6 6 6 7 7 7 7 7 7 8 6 6 3 2 3 3 3 3 4 4 5 4 5 4 3 4 4 4 3 4 2 5 5 4 5 5 4 3 1 -1 -0 -1 -1 -2 -2
6 6 6 5 5 5 5 5 5 6 6 6 6 7 7 7 8 7 7 6 6 5 5 2 2 2 2 3 3 4 3 3 2 2 3 3 3 3 2 3 3 4 4 3 3 2 0 -1 -1 -1 -2 -2 -2 -2
6 6 6 5 5 5 5 5 5 5 5 5 6 6 7 7 7 7 7 6 6 6 5 1 2 1 2 2 3 3 3 2 2 2 2 3 2 2 1 2 1 2 3 3 3 -0 -1 -1 -2 -3 -3 -3 -3 -4
6 6 6 5 5 5 5 5 5 5 5 5 5 6 7 7 7 6 4 5 5 6 3 3 0 1 1 2 2 2 2 2 1 2 1 1 2 2 1 1 1 -0 -1 -1 -1 -1 -1 -1 -3 -3 -3 -4 -4 -4
6 6 6 5 5 5 5 5 5 5 5 5 6 6 7 7 5 5 4 5 4 6 3 1 -2 0 1 2 1 0 0 0 1 0 0 1 1 2 -1 0 -0 -2 -2 -2 -3 -2 -2 -3 -4 -4 -4 -4 -5 -5
6 6 6 5 5 5 5 5 4 5 5 5 5 6 5 4 4 4 3 3 5 5 3 -1 -3 -2 1 0 0 0 -0 -0 -1 0 0 0 -0 -1 -1 -1 -2 -1 -2 -3 -4 -3 -3 -4 -4 -5 -5 -5 -6 -6
6 6 6 5 5 5 5 5 4 5 5 5 4 4 3 3 2 2 3 4 4 4 1 1 -1 -0 -0 0 -0 -0 -0 -2 -0 -1 0 1 -0 -1 -1 -2 -3 -4 -3 -4 -4 -4 -5 -5 -6 -6 -6 -6 -7 -7
6 5 5 5 5 5 5 4 4 5 4 5 4 3 0 -1 1 3 2 2 -0 -1 -1 -2 -1 -1 -1 -1 -1 -1 -3 -2 -2 -1 -0 -2 -0 -3 -4 -5 -5 -5 -5 -5 -6 -5 -6 -6 -6 -7 -7 -7 -7 -7
5 5 5 5 5 5 5 4 4 4 3 3 -0 -1 -1 -1 -1 -0 -1 -2 -6 -4 -2 -2 -1 -2 -1 -1 -1 -0 -3 -4 -3 -1 -1 -1 -1 -4 -5 -5 -5 -5 -5 -6 -5 -6 -6 -7 -8 -8 -8 -8 -8 -9
5 5 5 5 5 5 5 4 4 3 3 3 1 -1 -2 -1 -1 -0 -2 -3 -3 -0 -3 -2 -1 -1 -2 -1 -1 -3 -2 -3 -3 -1 -4 -3 -4 -4 -5 -5 -6 -6 -6 -6 -7 -7 -8 -8 -9 -9 -9 -9 -10 -10
5 5 5 5 5 5 5 4 3 3 2 2 0 -1 -1 -3 -1 -1 -2 -4 -4 -3 -3 -2 -2 -3 -4 -4 -5 -4 -5 -4 -4 -5 -4 -6 -5 -6 -6 -6 -6 -7 -7 -7 -8 -9 -9 -10 -9 -10 -10 -10 -10 -10
4 4 4 4 4 5 5 4 3 2 2 0 -0 0 -0 -3 -3 -2 -1 -2 -3 -3 -2 -3 -4 -3 -6 -4 -6 -4 -5 -4 -7 -6 -5 -8 -9 -8 -7 -7 -8 -9 -9 -9 -10 -10 -10 -11 -11 -10 -10 -10 -10 -11
4 4 4 4 4 5 5 4 1 1 -1 -0 1 1 -2 -4 -5 -6 -6 -4 -5 -4 -4 -5 -5 -5 -7 -6 -7 -6 -7 -8 -6 -6 -8 -10 -11 -12 -12 -11 -10 -10 -10 -10 -10 -11 -10 -10 -11 -10 -10 -10 -10 -10
4 3 3 4 4 5 3 1 0 -2 -3 -3 -5 -5 -4 -5 -5 -5 -6 -3 -6 -6 -6 -6 -7 -7 -7 -7 -7 -6 -7 -7 -7 -9 -10 -11 -13 -15 -15 -11 -10 -10 -10 -10 -10 -11 -10 -10 -10 -10 -10 -10 -10 -10
4 3 3 4 4 4 1 1 -3 -3 -3 -3 -6 -5 -5 -5 -5 -5 -3 -7 -5 -5 -6 -7 -6 -4 -9 -9 -8 -10 -8 -8 -9 -7 -11 -14 -13 -15 -11 -11 -10 -10 -10 -10 -10 -10 -10 -10 -10 -10 -10 -10 -10 -10
2 3 4 4 3 -0 -2 -3 -4 -4 -4 -4 -5 -5 -5 -7 -6 -7 -8 -8 -4 -4 -6 -5 -7 -8 -8 -9 -8 -10 -10 -10 -11 -10 -11 -10 -10 -10 -10 -10 -10 -10 -10 -10 -10 -10 -10 -10 -10 -10 -10 -10 -10 -10
0 2 1 1 1 -1 -5 -5 -4 -5 -5 -5 -5 -5 -5 -6 -6 -7 -7 -6 -5 -5 -6 -9 -8 -10 -9 -10 -10 -11 -12 -11 -11 -12 -11 -9 -9 -9 -9 -9 -10 -10 -10 -10 -10 -10 -10 -10 -10 -10 -11 -11 -11 -11
-2 -2 -1 -2 -2 -4 -5 -6 -4 -5 -5 -5 -5 -5 -6 -6 -6 -8 -9 -9 -9 -11 -9 -10 -11 -11 -12 -13 -11 -12 -12 -10 -13 -13 -11 -9 -9 -9 -9 -9 -10 -10 -10 -10 -10 -9 -10 -10 -10 -11 -11 -11 -11 -11
-2 -3 -3 -3 -6 -7 -9 -7 -7 -6 -6 -7 -7 -6 -6 -8 -9 -9 -11 -11 -11 -14 -13 -14 -15 -15 -13 -12 -11 -10 -10 -10 -14 -14 -13 -13 -9 -9 -10 -10 -10 -10 -10 -10 -11 -11 -11 -11 -11 -11 -12 -12 -12 -11
-1 -1 -1 -3 -7 -9 -9 -10 -7 -7 -7 -8 -8 -8 -8 -8 -9 -11 -13 -12 -17 -14 -14 -14 -14 -13 -13 -12 -11 -11 -11 -11 -10 -10 -9 -9 -10 -10 -10 -11 -11 -11 -11 -12 -12 -12 -12 -11 -11 -11 -12 -12 -12 -12
-0 -0 -2 -4 -7 -7 -9 -10 -8 -9 -6 -8 -9 -9 -11 -13 -14 -14 -15 -17 -14 -12 -12 -12 -12 -11 -11 -11 -11 -11 -11 -11 -10 -10 -11 -11 -10 -10 -10 -11 -11 -12 -12 -12 -12 -12 -12 -11 -12 -12 -12 -12 -12 -13
-1 -7 -8 -8 -8 -11 -12 -9 -9 -9 -8 -8 -9 -9 -12 -14 -15 -13 -12 -12 -12 -12 -12 -12 -12 -12 -12 -12 -11 -11 -11 -11 -11 -11 -11 -11 -11 -11 -11 -11 -12 -12 -12 -12 -12 -12 -12 -12 -12 -12 -12 -13 -13 -13
-6 -10 -10 -10 -12 -9 -10 -12 -12 -10 -11 -12 -12 -12 -13 -16 -12 -12 -11 -13 -13 -13 -13 -11 -11 -11 -13 -13 -11 -11 -12 -12 -11 -12 -12 -12 -12 -11 -11 -11 -12 -12 -12 -12 -12 -13 -13 -13 -13 -13 -13 -13 -13 -14
-10 -13 -11 -11 -11 -8 -10 -10 -11 -11 -10 -12 -13 -15 -17 -13 -11 -10 -12 -14 -14 -14 -13 -12 -12 -13 -13 -11 -12 -12 -12 -12 -12 -12 -12 -12 -12 -12 -12 -12 -12 -12 -13 -13 -13 -13 -13 -13 -13 -13 -13 -14 -14 -14
-10 -13 -12 -9 -9 -9 -9 -10 -10 -10 -12 -12 -14 -14 -13 -11 -10 -12 -14 -15 -15 -14 -13 -12 -11 -11 -12 -12 -13 -13 -13 -12 -12 -12 -12 -13 -13 -13 -13 -12 -12 -12 -13 -12 -12 -13 -13 -13 -13 -14 -14 -14 -14 -15
-16 -15 -11 -14 -13 -14 -11 -12 -13 -13 -13 -13 -11 -12 -11 -10 -11 -15 -16 -16 -15 -14 -14 -13 -13 -13 -13 -13 -13 -13 -13 -13 -13 -12 -12 -12 -13 -13 -12 -12 -12 -13 -12 -12 -12 -12 -12 -13 -13 -13 -13 -14 -14 -14
-15 -14 -14 -16 -17 -17 -18 -17 -16 -15 -14 -16 -13 -14 -15 -17 -18 -17 -16 -16 -15 -14 -14 -14 -14 -13 -13 -13 -13 -13 -13 -13 -13 -15 -16 -16 -12 -13 -12 -12 -12 -12 -12 -12 -12 -12 -13 -13 -13 -13 -13 -13 -14 -14
-15 -17 -15 -19 -17 -18 -20 -19 -19 -17 -15 -17 -16 -16 -17 -18 -17 -17 -16 -16 -15 -15 -15 -15 -15 -14 -14 -13 -14 -14 -14 -13 -13 -13 -14 -14 -13 -13 -12 -12 -12 -12 -12 -12 -12 -12 -13 -13 -13 -13 -13 -14 -14 -14
-16 -17 -17 -17 -19 -20 -20 -19 -17 -16 -18 -22 -18 -19 -18 -20 -17 -17 -17 -16 -16 -16 -16 -16 -15 -15 -15 -14 -14 -14 -14 -14 -14 -13 -13 -13 -13 -13 -13 -12 -13 -13 -13 -13 -13 -13 -13 -13 -13 -14 -14 -14 -14 -14
-17 -20 -17 -17 -18 -21 -19 -23 -23 -22 -22 -20 -21 -23 -21 -20 -19 -18 -17 -17 -16 -16 -15 -16 -16 -16 -16 -15 -15 -15 -15 -14 -13 -13 -12 -12 -12 -12 -12 -12 -12 -12 -13 -13 -13 -13 -13 -13 -13 -14 -14 -14 -14 -14
-20 -21 -22 -20 -20 -19 -20 -21 -20 -20 -21 -22 -21 -22 -23 -20 -18 -17 -17 -17 -17 -17 -17 -16 -16 -16 -15 -15 -15 -14 -14 -14 -13 -13 -13 -12 -11 -11 -11 -11 -11 -12 -12 -12 -13 -13 -13 -13 -14 -14 -14 -14 -15 -15
Height
810 814 815 818 820 820 822 824 824 826 827 828 829 830 832 834 835 838 842 846 850 853 859 860 860 863 868 867 865 873 875 877 879 880 877 877 878 875 880 874 875 877 881 883 880 877 868 861 858 858 866 869 868 870
806 812 813 814 817 818 819 821 822 824 826 828 829 830 831 834 834 837 841 844 849 851 858 861 862 862 862 861 864 869 866 866 869 873 877 874 875 881 882 876 865 867 861 861 865 854 858 860 864 868 867 870 871 870
803 809 811 812 815 816 818 819 821 824 826 826 828 831 831 833 835 838 840 843 849 853 861 862 862 863 863 862 863 867 868 867 870 871 874 876 878 877 876 880 865 858 861 862 859 857 859 863 869 867 868 870 870 869
802 805 809 811 812 813 815 817 820 821 824 825 826 829 831 833 834 837 841 844 846 850 856 864 864 863 863 863 864 864 865 869 872 873 874 876 877 870 874 867 868 861 862 860 860 862 867 869 870 869 869 867 867 867
797 802 804 809 811 811 813 815 817 819 821 823 823 826 829 831 834 836 840 843 845 849 853 864 863 865 862 863 865 866 865 869 873 875 873 875 875 874 872 870 870 863 860 860 857 865 868 871 872 871 869 866 865 865
792 797 801 807 809 811 813 812 814 817 819 820 822 821 824 828 832 838 842 842 843 845 851 859 864 863 862 865 867 867 868 870 871 872 874 872 871 873 874 869 864 865 865 864 867 867 867 869 873 874 871 868 864 863
788 792 796 802 805 809 811 810 811 814 816 818 819 820 820 825 829 832 836 837 840 842 848 863 870 863 862 866 868 870 869 871 872 874 874 870 871 871 875 869 865 867 866 866 868 866 867 868 872 873 872 868 864 861
781 787 794 798 802 806 808 809 809 811 814 814 817 819 820 824 829 832 834 838 839 840 846 865 874 870 866 866 867 868 869 867 870 873 872 872 872 874 876 869 869 867 866 870 871 869 869 868 870 871 871 867 863 859
776 782 788 794 799 801 803 806 807 809 812 810 814 818 824 827 830 831 835 838 838 844 848 854 866 866 867 864 863 864 868 876 869 872 872 870 870 874 866 868 872 875 874 874 871 869 869 869 871 871 869 866 863 859
771 777 783 788 794 799 800 803 804 807 809 810 814 818 831 832 833 837 839 840 841 844 847 854 855 862 864 863 865 866 870 872 877 868 866 873 863 870 872 871 875 877 877 874 873 872 871 871 871 869 868 867 863 860
766 773 778 783 789 795 797 799 803 804 808 808 814 825 830 832 836 839 844 849 856 855 848 850 852 859 861 865 869 864 874 879 882 870 870 867 863 872 873 873 875 874 877 876 874 874 873 873 871 869 868 866 862 859
760 767 772 778 785 790 792 794 798 800 803 806 806 820 831 834 837 842 849 850 850 842 847 848 850 852 857 857 863 870 871 878 882 869 881 874 873 873 875 875 876 872 874 875 876 874 873 872 870 869 867 864 861 858
756 761 767 774 779 783 788 791 795 797 799 806 809 819 822 836 839 839 843 851 850 839 842 845 852 854 858 860 871 873 880 879 874 883 878 877 874 877 877 878 875 871 873 875 875 874 873 871 870 868 866 863 859 855
752 757 761 767 775 779 782 787 790 794 797 799 806 817 820 829 827 820 821 825 831 832 835 841 851 854 861 863 872 876 877 876 893 892 878 880 879 880 879 879 876 873 873 874 875 874 873 871 869 867 864 861 858 854
747 753 755 759 766 774 781 784 788 793 796 799 795 802 817 818 824 826 825 827 831 833 835 843 851 854 867 868 874 878 887 894 884 875 878 876 879 880 882 878 876 875 873 873 874 873 872 870 868 865 862 859 856 853
741 745 746 753 761 769 778 776 786 792 804 803 811 820 816 819 826 825 827 828 832 837 841 844 859 867 870 867 876 876 883 884 876 878 876 875 878 880 878 877 876 874 873 873 873 872 871 869 866 863 861 858 855 852
731 731 738 748 759 767 771 779 790 798 804 807 817 816 817 817 820 822 820 829 829 837 849 852 861 858 872 879 876 882 879 874 875 870 872 876 877 875 875 876 875 873 873 873 872 870 868 867 865 862 858 856 854 851
716 717 729 741 755 762 774 784 792 798 811 814 820 819 820 825 831 831 829 829 830 835 842 846 848 866 872 877 874 876 875 873 870 871 874 873 873 875 875 875 874 873 873 871 870 868 867 865 863 860 858 855 853 850
718 720 727 734 742 758 778 790 792 804 817 822 824 822 825 832 836 834 829 832 834 835 838 845 854 869 867 871 872 873 873 871 873 873 872 872 873 874 875 874 873 873 872 870 869 868 866 864 862 860 858 855 853 850
724 728 734 740 744 757 778 795 798 806 819 825 825 826 832 837 838 839 838 839 838 845 849 857 861 864 867 868 867 870 870 869 869 873 873 873 874 875 874 874 873 872 870 869 869 867 865 863 861 859 857 855 852 850
734 739 740 742 749 764 790 802 808 814 821 827 830 830 837 842 845 846 848 845 847 861 865 864 865 864 864 867 869 870 869 868 870 871 874 875 874 874 874 873 872 871 870 870 868 867 865 863 861 859 856 855 853 851
741 742 744 750 766 784 800 808 810 816 824 831 834 837 842 845 849 853 853 853 867 864 862 862 863 865 866 868 869 870 870 870 870 872 873 874 874 874 873 873 872 871 870 869 868 866 865 863 861 859 857 856 854 852
742 743 750 759 776 792 813 812 815 821 823 834 836 842 853 857 858 856 866 867 864 862 862 863 864 865 866 868 869 869 870 871 873 874 874 873 873 873 873 872 871 870 869 868 867 866 864 863 861 860 858 856 855 853
747 756 769 780 789 814 816 818 820 825 830 834 840 849 857 861 860 861 864 865 864 864 864 864 864 866 867 868 869 871 872 873 873 873 873 872 872 872 871 871 871 870 869 868 867 866 865 863 862 860 859 858 856 855
759 789 789 802 806 809 819 830 833 832 844 849 852 858 860 863 862 864 862 866 864 863 863 863 864 865 867 869 871 872 872 872 872 872 872 871 871 870 870 870 870 870 869 868 867 866 865 864 863 862 860 859 857 856
794 807 805 808 811 807 822 828 832 836 839 849 857 862 864 860 858 860 861 863 862 862 862 863 865 868 869 869 870 871 871 871 871 871 871 870 870 870 870 870 870 870 869 868 867 866 865 864 864 862 860 859 859 857
807 816 812 810 810 812 819 825 828 832 844 850 856 859 858 858 860 862 862 862 862 863 865 866 866 867 867 869 870 870 870 870 870 870 870 870 870 870 870 870 869 870 869 868 867 866 865 864 864 863 862 861 860 859
819 820 816 824 820 823 826 834 840 847 848 848 848 854 855 854 858 864 864 864 864 865 866 866 867 867 868 868 869 870 870 870 870 870 870 870 870 869 869 869 868 868 868 868 867 866 865 864 864 863 862 862 861 859
824 822 822 835 836 841 851 853 853 852 852 853 853 858 862 864 866 865 866 866 866 866 866 867 867 867 867 868 868 869 869 869 870 870 870 870 869 870 869 868 868 868 868 868 868 867 866 865 864 864 863 862 861 860
830 827 832 846 847 859 862 858 859 855 854 854 855 859 863 866 867 867 867 866 866 866 866 866 866 867 867 868 868 868 868 868 869 870 869 869 869 869 869 868 868 868 867 868 868 868 867 866 866 865 864 863 862 861
831 832 841 850 861 863 860 858 857 856 856 857 857 860 865 867 867 867 867 866 866 866 867 867 868 868 868 868 868 869 869 869 869 869 869 869 869 868 868 868 868 868 868 868 867 867 867 866 866 865 864 863 862 860
838 848 847 856 863 862 859 862 864 865 864 864 867 865 866 867 871 868 868 867 868 868 868 868 868 868 868 868 868 869 869 869 869 869 869 869 868 868 867 868 868 868 868 867 867 867 866 866 865 865 864 863 861 860
849 851 856 859 865 864 864 864 867 870 870 874 872 872 873 871 871 870 869 869 869 869 868 868 868 867 867 867 868 868 869 869 868 868 868 867 866 867 867 867 867 867 867 866 866 866 865 865 864 863 862 861 860 858
Wind_Speed
8 7 7 8 8 7 5 3 3 3 1 1 2 5 7 8 14 20 7 16 6 2 1 5 5 4 2 3 4 4 2 1 2 3 3 3 3 3 1 3 5 6 5 4 3 4 7 2 1 1 1 1 2 4
10 8 7 6 6 6 6 6 3 3 4 4 3 4 5 3 5 14 4 14 8 4 2 2 2 2 2 2 3 4 1 3 4 2 1 1 3 2 3 3 2 3 5 2 6 3 2 2 3 4 3 2 4 4
13 9 7 7 7 7 7 6 5 4 5 5 5 5 7 6 5 11 6 16 6 4 3 1 0 2 4 3 3 2 1 2 2 1 2 1 4 3 3 5 3 2 2 3 1 1 2 6 5 4 4 3 4 4
18 13 9 6 7 9 7 6 5 4 5 7 9 9 9 10 11 14 8 14 6 5 2 1 2 0 2 2 2 2 7 6 5 2 2 2 2 3 3 3 3 3 1 3 3 2 6 4 4 3 3 3 5 9
21 17 11 7 7 9 8 6 5 4 4 5 9 12 12 13 13 15 11 16 8 3 2 2 2 2 3 4 5 8 12 5 1 2 2 3 2 1 2 1 3 4 4 3 4 3 1 1 2 5 5 5 5 7
24 21 16 11 7 7 8 9 8 7 7 5 6 14 12 20 20 13 1 12 16 7 3 2 0 2 4 5 7 8 8 2 1 2 2 2 1 2 1 3 1 2 4 3 2 0 0 2 6 9 5 6 10 10
28 24 20 16 11 8 6 6 9 9 8 7 7 15 18 23 24 5 3 4 17 9 3 2 1 1 4 3 2 2 1 1 2 1 2 2 2 3 2 3 3 4 5 5 4 3 3 5 3 9 10 12 13 13
29 27 24 20 16 11 8 7 9 9 8 7 9 22 29 23 15 7 12 19 16 7 4 3 1 2 3 2 2 2 2 1 0 2 1 2 1 0 3 2 3 3 5 5 4 4 2 4 8 8 12 12 10 8
29 28 26 23 20 14 10 8 10 12 9 16 29 30 19 3 3 9 16 10 7 3 4 2 4 3 4 2 2 1 1 0 0 1 2 3 2 4 3 3 3 3 2 2 4 3 5 5 5 7 9 11 9 10
29 28 26 23 20 15 10 8 11 13 29 29 20 6 2 4 22 15 4 2 3 4 2 2 3 3 3 1 1 2 1 2 1 3 1 1 2 3 4 5 5 3 3 4 3 3 5 5 7 7 8 12 12 15
28 27 25 24 20 17 10 11 7 32 34 7 5 2 17 10 2 3 2 3 1 2 1 2 2 3 1 2 2 1 2 0 1 2 2 2 2 2 4 4 4 4 4 5 4 3 5 5 4 6 10 12 13 15
27 26 26 24 21 18 13 16 15 36 8 11 19 16 6 2 2 4 2 0 2 4 1 4 2 3 1 1 3 1 3 2 3 0 2 3 1 4 4 3 2 4 5 5 6 6 8 9 11 12 13 13 14 17
25 26 25 24 23 19 17 19 25 28 24 13 5 4 4 1 2 7 8 4 2 4 4 3 2 3 2 3 2 3 3 4 1 1 3 3 2 3 2 1 2 6 6 5 6 7 9 10 11 12 14 15 16 18
25 25 24 23 24 20 18 15 32 35 6 2 4 6 6 4 5 4 4 4 2 3 7 4 2 3 1 3 2 4 2 3 2 1 4 2 2 3 2 2 2 3 5 6 7 9 9 10 12 13 13 14 15 18
25 27 26 26 24 20 19 21 42 13 4 1 3 5 4 2 2 1 2 3 2 4 4 4 3 2 2 4 1 3 4 2 5 4 2 2 2 1 1 2 2 3 5 7 8 10 10 11 12 14 14 13 14 16
27 24 29 27 23 23 26 43 21 5 4 2 4 3 4 4 1 2 3 5 1 2 2 3 3 3 0 4 3 5 6 6 3 2 2 3 1 2 1 3 3 4 5 7 8 9 9 10 12 13 14 13 15 15
30 23 28 28 29 26 46 20 5 3 4 3 2 1 3 2 2 3 4 2 3 3 2 3 4 4 2 3 1 3 4 2 3 3 2 3 3 2 1 2 3 5 6 7 9 9 9 8 10 10 15 17 15 15
10 21 30 28 31 40 10 6 4 3 5 3 3 2 3 3 2 2 2 2 2 3 2 3 4 3 4 5 2 2 2 1 2 2 3 2 2 1 1 3 4 5 6 8 8 9 9 9 11 12 14 16 14 15
29 38 41 49 45 15 4 3 4 4 3 2 1 3 4 4 7 6 6 7 6 5 4 2 5 3 2 1 2 1 1 1 2 2 2 3 3 2 2 3 4 4 6 8 9 10 8 8 9 11 15 13 12 14
32 30 26 19 14 6 5 3 5 4 3 1 2 3 3 2 2 2 3 3 2 2 4 3 2 2 3 2 1 2 2 3 2 2 2 1 1 1 0 3 5 6 6 5 7 8 8 11 11 12 13 11 12 13
32 22 18 19 9 14 5 2 3 2 3 3 1 2 3 2 2 3 2 5 3 2 1 1 1 1 6 7 6 7 6 5 2 2 2 1 4 2 2 4 5 4 4 6 9 10 10 11 12 12 12 11 11 9
12 10 6 10 7 6 4 9 3 3 3 2 2 2 3 2 2 2 3 3 2 1 1 2 2 4 4 4 4 5 4 4 3 1 1 1 1 1 3 5 6 7 6 7 9 10 11 11 11 11 11 11 8 9
7 6 7 7 6 5 2 4 4 3 4 2 1 3 2 1 1 3 2 1 1 2 3 4 6 7 8 6 5 5 4 4 3 1 1 2 2 2 1 3 5 6 8 8 8 9 10 9 9 8 9 10 9 9
5 7 5 4 5 3 0 3 2 3 3 2 3 3 1 0 2 3 2 0 0 2 2 5 7 6 4 3 3 4 2 2 1 2 2 2 2 2 2 3 3 5 6 6 6 7 8 8 7 7 9 11 9 9
7 8 5 5 3 5 4 3 3 3 4 1 3 1 1 2 2 1 2 2 1 1 3 5 4 3 2 2 5 4 2 1 2 2 1 2 2 1 2 1 2 4 7 6 7 8 8 7 7 7 8 11 11 10
7 4 4 1 2 4 2 4 2 3 3 3 2 1 0 2 3 1 2 2 1 1 3 4 3 2 3 4 5 5 2 2 3 2 1 2 1 0 0 1 0 2 5 5 6 7 6 6 6 6 8 8 9 10
5 3 3 3 2 3 4 3 3 4 4 3 3 2 2 3 1 2 0 3 2 3 4 4 4 5 8 7 5 2 3 2 2 2 2 2 3 2 1 2 2 2 4 3 5 5 5 4 4 5 5 7 8 9
3 3 4 4 4 3 4 3 3 3 1 1 2 3 4 4 3 0 1 3 5 4 4 4 4 4 5 5 3 2 2 2 1 1 1 1 1 3 3 3 2 2 1 2 4 6 5 4 4 5 5 6 7 8
4 4 2 6 5 5 5 3 2 2 2 1 3 2 2 1 1 1 2 2 2 3 5 5 3 2 3 3 2 3 3 3 1 3 2 2 1 1 3 3 2 1 4 6 3 6 7 7 6 6 6 6 7 7
4 2 4 4 5 4 2 1 1 2 2 2 1 3 3 2 3 4 3 2 3 3 2 2 2 2 3 4 4 5 3 2 3 3 2 1 3 2 2 2 1 1 2 2 2 2 2 2 3 5 5 5 7 8
2 3 4 4 3 2 2 4 4 2 3 2 5 3 2 2 2 5 6 4 3 3 2 3 4 4 4 5 5 7 6 4 3 2 2 2 2 2 1 1 0 1 1 1 2 2 3 3 4 5 5 7 7 8
3 3 3 4 0 3 4 2 1 2 3 3 3 2 3 3 2 3 4 3 3 5 4 3 4 3 3 2 3 3 0 1 3 3 5 6 8 3 1 1 1 1 1 2 2 2 3 3 4 5 6 7 9 10
3 3 3 3 3 2 2 3 4 2 4 3 3 1 0 1 2 0 1 3 1 1 1 0 1 2 2 3 4 4 3 3 4 5 4 10 2 1 2 4 5 4 3 1 1 2 3 4 5 6 8 9 10 11
Wind_Direction
218 223 227 243 250 250 225 238 278 271 207 162 171 173 167 174 198 205 194 192 181 140 174 196 177 146 126 209 169 139 114 219 142 196 193 234 201 228 272 223 189 180 178 205 188 240 264 322 3 184 91 60 25 344
205 216 225 229 240 240 221 223 222 265 223 214 188 159 145 137 197 203 131 188 185 97 108 162 211 214 248 143 131 182 236 158 172 177 211 154 231 179 201 260 237 234 203 200 195 239 126 41 93 88 78 37 357 339
205 217 215 216 236 223 203 203 202 209 211 206 207 203 182 184 175 205 176 168 139 111 56 119 180 245 227 193 188 148 263 146 117 58 109 164 236 149 203 230 249 237 172 231 11 155 107 111 93 73 66 38 341 341
211 207 213 225 214 191 185 191 195 204 219 208 214 204 198 195 194 200 179 179 136 118 150 142 117 15 331 233 234 218 129 93 92 61 144 200 223 177 230 251 219 223 159 203 252 110 94 73 55 52 47 19 341 330
214 213 209 211 200 195 199 206 213 214 223 230 212 200 197 197 199 195 192 179 185 144 174 174 124 13 15 150 124 136 131 110 138 161 177 222 250 250 257 307 239 195 215 197 238 128 147 155 69 32 13 348 337 321
215 213 210 213 212 219 227 228 229 233 240 251 248 198 198 200 188 157 42 204 195 164 114 174 44 21 63 126 141 146 142 113 135 158 190 232 250 157 242 245 294 62 58 40 154 34 211 295 119 12 343 344 337 336
217 217 216 217 217 233 243 249 231 228 231 240 239 194 191 192 170 153 183 181 166 150 102 107 329 321 106 115 117 107 128 166 125 207 231 188 227 186 239 234 143 111 102 85 55 355 132 63 334 349 354 340 337 327
219 219 220 221 223 231 249 274 228 228 232 227 196 177 169 158 133 104 124 141 144 109 89 117 304 14 188 179 148 166 145 100 326 223 330 185 6 68 266 169 139 97 105 92 36 40 68 39 10 352 344 339 338 337
219 220 221 224 225 226 241 274 227 216 218 162 158 155 131 96 112 127 129 122 106 104 150 145 156 197 185 178 130 73 128 89 346 166 243 139 200 223 298 163 121 31 72 350 335 58 44 33 347 336 337 340 336 332
219 218 219 220 223 226 241 239 216 221 169 167 133 81 67 41 119 114 78 49 26 359 40 150 122 169 154 179 176 104 42 203 209 235 88 178 248 92 62 74 97 82 55 22 36 359 354 352 345 343 336 325 321 324
217 217 217 218 215 217 232 210 236 167 158 167 107 87 122 125 93 33 86 110 319 16 162 181 135 137 266 123 169 166 175 223 95 265 159 245 215 142 121 99 92 79 49 39 43 3 4 340 335 332 328 331 330 327
219 220 217 217 212 213 220 199 192 173 189 177 127 119 123 106 59 103 194 33 180 208 173 135 160 136 149 104 100 309 134 66 232 80 71 270 204 130 125 131 101 68 40 32 18 7 358 350 347 336 330 330 330 328
215 214 216 215 210 212 214 201 194 182 149 133 74 89 144 126 96 186 185 245 204 164 171 154 119 122 52 58 63 88 99 207 40 73 228 227 147 111 123 99 77 63 38 19 1 357 351 344 346 342 330 335 337 341
217 214 211 213 217 219 217 202 175 158 157 143 152 142 206 179 229 184 170 150 184 127 135 119 100 119 145 74 133 103 245 69 58 258 236 220 200 141 83 28 53 26 17 358 348 344 338 339 335 339 340 339 339 341
216 216 215 214 214 225 214 199 168 166 72 190 122 184 192 121 60 135 100 85 42 125 116 95 64 94 41 86 63 93 40 267 207 225 222 176 196 109 317 337 14 358 350 340 336 329 328 331 332 336 349 348 347 347
222 224 221 220 223 222 192 155 156 88 59 55 55 78 110 77 122 81 93 113 21 100 72 55 97 62 254 142 97 205 135 217 231 197 188 124 166 221 256 314 316 335 333 327 326 323 320 330 336 336 347 357 357 354
230 225 220 218 220 199 162 145 96 70 59 60 360 10 81 56 132 119 123 145 140 85 135 113 103 188 117 56 343 196 204 195 178 123 92 159 187 236 322 324 333 337 333 332 329 335 332 333 338 345 351 354 356 357
187 217 206 202 170 137 113 58 88 88 67 42 81 22 56 41 37 32 72 15 93 135 129 165 121 90 156 155 242 221 179 152 78 120 161 142 107 92 338 321 332 326 320 327 330 336 340 329 342 346 347 348 352 356
109 121 135 143 149 122 99 62 40 91 77 66 50 53 69 68 34 28 60 71 87 104 109 53 88 136 191 205 154 191 116 142 159 217 166 108 88 56 14 342 344 336 331 339 344 338 351 356 360 350 347 354 354 358
105 110 123 126 143 90 84 58 66 76 97 105 36 56 68 56 54 12 23 358 57 57 43 57 146 174 160 185 56 136 157 129 110 73 61 77 74 307 346 358 346 343 351 1 359 357 15 6 6 356 357 359 358 357
94 91 69 69 58 64 76 78 70 85 97 75 38 64 85 62 35 25 357 335 57 57 74 190 142 135 91 103 104 111 96 97 111 136 174 283 326 251 99 6 1 12 7 15 13 9 7 1 352 354 2 5 359 2
105 84 75 59 78 64 77 25 80 80 73 87 79 48 72 67 28 359 317 47 71 231 144 122 130 132 109 108 108 97 94 99 91 70 332 17 18 33 3 7 11 21 32 30 14 6 358 358 358 359 12 4 13 21
103 54 58 51 77 59 39 7 79 17 103 123 91 79 36 47 269 341 60 189 198 35 84 100 113 106 115 116 112 103 98 94 111 114 342 327 296 277 310 352 12 17 7 6 10 4 359 358 6 3 14 18 24 28
81 53 49 59 64 111 53 53 64 76 84 70 77 91 11 262 321 53 78 357 226 149 97 118 129 102 95 105 115 131 124 171 180 182 360 336 61 129 356 358 6 13 6 354 10 13 8 13 11 27 32 27 33 34
67 358 60 40 24 88 75 50 31 61 92 63 97 70 254 31 92 86 166 228 196 152 137 132 112 102 119 132 156 153 126 212 162 176 348 318 303 252 245 342 21 13 10 14 22 15 17 17 26 37 46 34 32 39
68 326 60 37 1 93 148 100 98 120 107 83 82 183 133 125 78 183 210 197 132 128 137 147 154 118 86 140 157 168 252 274 202 208 296 336 328 298 58 19 31 265 356 8 7 11 16 22 27 40 47 47 41 40
67 353 350 25 103 103 86 58 71 92 86 120 176 130 92 76 192 238 133 26 84 118 134 151 168 164 156 146 139 102 64 109 161 132 92 47 34 14 329 300 282 304 344 18 12 11 11 25 36 42 50 46 43 39
144 34 76 323 58 14 103 71 60 73 117 286 92 63 124 164 185 180 62 92 113 133 153 157 161 169 172 183 197 212 198 163 143 315 296 300 360 14 3 338 314 308 161 56 33 38 42 47 54 55 50 47 44 39
44 345 67 39 48 48 43 65 103 28 4 61 110 119 148 57 32 51 77 98 133 147 143 139 126 121 148 162 180 208 223 226 204 67 38 308 314 321 356 360 359 150 139 116 91 38 39 42 50 53 50 45 41 34
348 353 83 51 61 38 287 357 233 295 19 96 110 99 78 64 62 59 56 96 138 120 118 116 101 126 122 141 118 96 90 153 209 216 183 243 327 339 356 2 36 83 136 195 197 180 80 74 51 47 41 32 27 21
340 52 73 54 85 263 262 320 321 37 38 38 21 93 120 169 103 50 39 48 70 87 114 135 135 133 133 128 126 126 97 77 86 93 52 8 333 305 294 292 180 116 112 119 116 104 84 64 49 35 25 19 14 4
26 55 110 95 4 293 9 56 18 62 357 44 1 29 19 52 32 357 21 52 117 110 91 126 149 142 146 155 160 155 247 217 141 108 2 334 325 299 254 218 190 163 133 101 79 64 46 33 20 9 3 360 358 356
58 53 57 91 50 18 328 75 24 27 29 36 3 360 161 146 178 288 26 23 122 154 140 325 249 229 221 219 218 223 261 250 236 299 317 353 122 280 265 266 237 223 215 209 299 339 336 336 331 328 334 334 335 337